This is the latest recevied weather packets stored in our database for station/object W2GRK-15. If no packets are shown the sender has not sent any weather packets the latest 10 day(s).
| Time | Temp. | Humidity | Pressure | Rain* | Wind** | Luminosity | Snow |
|---|---|---|---|---|---|---|---|
| 1777411099 | 15.56° C | 51% | 1019.5 hPa | 0 mm | - | 64 W/m² | - |
| 1777410878 | 15.56° C | 51% | 1019.6 hPa | 0 mm | - | 77 W/m² | - |
| 1777410523 | 15.56° C | 51% | 1019.4 hPa | 0 mm | - | 90 W/m² | - |
| 1777410391 | 15.56° C | 51% | 1019.4 hPa | 0 mm | - | 94 W/m² | - |
| 1777410198 | 15.56° C | 51% | 1019.4 hPa | 0 mm | - | 96 W/m² | - |
| 1777409537 | 15.56° C | 51% | 1019.5 hPa | 0 mm | - | 85 W/m² | - |
| 1777409360 | 15.56° C | 51% | 1019.2 hPa | 0 mm | - | 77 W/m² | - |
| 1777409070 | 15.56° C | 51% | 1019.2 hPa | 0 mm | - | 79 W/m² | - |
| 1777409006 | 15.56° C | 51% | 1019.2 hPa | 0 mm | - | 80 W/m² | - |
| 1777408829 | 16.11° C | 51% | 1019.4 hPa | 0 mm | - | 79 W/m² | - |
| 1777407995 | 16.11° C | 49% | 1019.5 hPa | 0 mm | - | 79 W/m² | - |
| 1777407798 | 16.11° C | 49% | 1019.6 hPa | 0 mm | - | 89 W/m² | - |
| 1777407379 | 16.11° C | 50% | 1019.7 hPa | 0 mm | - | 107 W/m² | - |
| 1777407331 | 16.11° C | 50% | 1019.6 hPa | 0 mm | - | 115 W/m² | - |
| 1777407089 | 16.67° C | 49% | 1019.6 hPa | 0 mm | - | 136 W/m² | - |
| 1777406848 | 16.67° C | 49% | 1019.8 hPa | 0 mm | - | 156 W/m² | - |
| 1777406606 | 16.67° C | 49% | 1019.8 hPa | 0 mm | - | 188 W/m² | - |
| 1777405946 | 16.67° C | 49% | 1019.8 hPa | 0 mm | - | 199 W/m² | - |
| 1777405704 | 16.67° C | 48% | 1019.7 hPa | 0 mm | - | 215 W/m² | - |
| 1777405576 | 17.22° C | 48% | 1019.8 hPa | 0 mm | - | 230 W/m² | - |
| 1777405398 | 17.22° C | 49% | 1019.9 hPa | 0 mm | - | 236 W/m² | - |
| 1777405221 | 17.22° C | 48% | 1019.8 hPa | 0 mm | - | 259 W/m² | - |
| 1777405128 | 16.67° C | 49% | 1020 hPa | 0 mm | - | 274 W/m² | - |
| 1777404738 | 17.22° C | 48% | 1020.1 hPa | 0 mm | - | 273 W/m² | - |
| 1777404625 | 16.67° C | 49% | 1020.1 hPa | 0 mm | - | 260 W/m² | - |
* Rain latest hour (hover to see other rain measurements)
** Current wind speed in m/s (hover to see current wind gust speed)